{"data":{"norad_id":62754,"intl_designator":"2025-014V","name":"STARLINK-32740","alt_names":[],"object_type":"PAYLOAD","status":"ACTIVE","operator":null,"country":"US","launch_date":"2025-01-21","launch_site_code":"AFETR","launch_vehicle":null,"mission":null,"orbit_class":"UNKNOWN","rcs_meters":null,"size_class":null,"mass_kg":null,"dimensions":null,"purposes":["comms"],"wikipedia_slug":null,"has_3d_model":false,"image_url":null,"decayed_at":null,"tle_current":{"epoch":"2026-09-21T22:12:22.597056Z","epoch_age_seconds":48229,"freshness":"FRESH","line1":"1 62754U 25014V   26264.92526154  .00010142  00000+0  37743-3 0  9994","line2":"2 62754  43.0012 125.7650 0001195 268.1375  91.9340 15.27590621 93275","mean_motion":15.27590621,"eccentricity":0.0001195,"inclination_deg":43.0012,"raan_deg":125.765,"arg_perigee_deg":268.1375,"mean_anomaly_deg":91.934,"bstar":0.00037743,"rev_number":9327,"period_min":94.26609329778,"perigee_km":482.19738519101,"apogee_km":483.83720106706,"semimajor_km":6861.154293129,"source":"CELESTRAK","updated_at":"2026-09-22T09:00:49.659824Z"}}}